[[{"header":{"parameterUnit":"m.s-1","parameterCategory":2,"la1":30.2991,"la2":30.254,"lo1":-89.0895,"lo2":-89.0444,"dy":0.0017,"dx":0.0017,"nx":28,"ny":28,"refTime":"2025-11-22T03:00:00:Z","depth":"0","parameterNumber":2,"parameterNumberName":"U-component_of_CURRENTS"},"data":[0,0,0,0,0,0,0,0,0,0,0,0,0,0,0,0,0,0,0,0,0,0,0,0,0,0,0,0,0,0,0,0,0,0,0,0,0,0,0,0,0,0,0,0,0,0,0,0,0,0,0,0,0,0,0,0,0,0,0.3334,0.3334,0,0.3328,0.3328,0.3328,0.3293,0.3293,0.3292,0.3292,0.3262,0.3262,0.3262,0,0,0,0,0,0,0,0,0,0,0,0,0,0.3324,0.3324,0.3334,0.3334,0.3334,0.3328,0.3328,0.3328,0.3293,0.3293,0.3292,0.3291,0.3262,0.3262,0.3262,0,0,0,0,0,0,0,0,0,0,0,0,0,0.3322,0.3324,0.3334,0.3318,0.3317,0.3329,0.3328,0.3328,0.3294,0.3293,0.3292,0.3291,0.3262,0.3262,0.3262,0.3278,0,0,0.3261,0.326,0,0,0,0,0,0,0,0,0.3322,0.3322,0.332,0.3319,0.3318,0.3313,0.3314,0.3311,0.3294,0.33,0.3292,0.329,0.3279,0.3277,0.3275,0.3277,0.3275,0.3261,0.326,0.326,0.326,0,0,0,0,0,0,0,0.3323,0.3322,0.3329,0.332,0.3319,0.3315,0.3313,0.3313,0.3292,0.3299,0.3297,0.3301,0.3278,0.3276,0.3274,0.3275,0.3261,0.326,0.326,0.326,0.3316,0.3317,0,0,0,0,0,0,0.3329,0.3323,0.3329,0.3329,0.3321,0.3316,0.3314,0.3313,0.3293,0.329,0.3302,0.3299,0.3277,0.3275,0.3273,0.3313,0.326,0.326,0.326,0.3314,0.3316,0.3318,0,0,0,0,0,0,0.3328,0.3329,0.333,0.3328,0.3328,0.3317,0.3317,0.3314,0.3315,0.3295,0.3291,0.3307,0.3276,0.3273,0.3283,0.3311,0.326,0.3259,0.3312,0.3314,0.3317,0.3379,0,0,0,0,0,0,0.3328,0.3329,0.3334,0.3328,0.3328,0.3343,0.3318,0.3314,0.332,0.3316,0.3298,0.3294,0.3275,0.3284,0.3283,0.3309,0.3259,0.331,0.3313,0.3316,0.3375,0.3383,0.339,0,0,0,0,0,0.3328,0.3337,0.3334,0.3335,0.3334,0.3344,0.3344,0.3331,0.3321,0.3327,0.3318,0.3295,0.3303,0.3285,0.3283,0.331,0.3308,0.3312,0.3316,0.3371,0.3382,0.339,0,0,0,0,0,0,0.3333,0.3335,0.3331,0.3339,0.3345,0.3339,0.3347,0.334,0.3338,0.3336,0.3312,0.3309,0.3331,0.3315,0.3296,0.3338,0.3304,0.3308,0.3347,0.3356,0.3364,0.3371,0.3259,0,0,0,0,0,0.3339,0.3346,0.3348,0.3357,0.3362,0.3357,0.3361,0.3355,0.3353,0.3351,0.3339,0.3335,0.3347,0.3345,0.3348,0.3367,0.3366,0.3386,0.3394,0.3401,0.3407,0.3447,0.3459,0.333,0.333,0.333,0,0,0.3342,0.3347,0.3349,0.3359,0.3362,0.3376,0.3357,0.3369,0.338,0.335,0.336,0.3363,0.336,0.3383,0.3392,0.3371,0.3436,0.3405,0.3411,0.3414,0.3453,0.3465,0.3476,0.3333,0.3332,0.3332,0,0,0.3355,0.336,0.337,0.3381,0.3393,0.3396,0.3403,0.3404,0.3404,0.342,0.341,0.3432,0.343,0.3441,0.3446,0.3502,0.348,0.3502,0.3541,0.358,0.3591,0.3601,0.3608,0.3617,0.3501,0.3501,0.3501,0,0.336,0.3369,0.3376,0.3392,0.3402,0.3408,0.3422,0.3432,0.3435,0.3451,0.343,0.3472,0.3463,0.3512,0.3526,0.352,0.3526,0.3502,0.3591,0.36,0.3609,0.3614,0.3624,0.3504,0.3504,0.3503,0.3503,0,0.3378,0.3389,0.3399,0.342,0.3436,0.3451,0.3468,0.3489,0.3492,0.3505,0.3551,0.355,0.3576,0.3581,0.3565,0.363,0.3608,0.36,0.3565,0.3626,0.3626,0.3636,0.3509,0.3508,0.3507,0.3506,0,0,0.3368,0.3403,0.3404,0.3415,0.345,0.3461,0.3502,0.3539,0.3571,0.359,0.363,0.3662,0.3672,0.3679,0.3674,0.3701,0.3758,0.3674,0.3674,0.3677,0.3827,0.3779,0.3783,0.3766,0.3768,0.377,0.3799,0,0.3373,0.3399,0.342,0.3448,0.3461,0.3495,0.3533,0.3575,0.3605,0.3648,0.3682,0.3714,0.3707,0.3717,0.3755,0.3759,0.3787,0.375,0.377,0.3771,0.3718,0.3795,0.3655,0.3667,0.3808,0.3809,0.381,0,0.3369,0.339,0.3412,0.3458,0.3469,0.3492,0.3556,0.3591,0.3671,0.3701,0.3764,0.378,0.3838,0.3807,0.3877,0.3853,0.3849,0.3846,0.3847,0.3788,0.3741,0.3632,0.3678,0.3587,0.3824,0.3823,0.3822,0,0.3333,0.3377,0.3391,0.3406,0.3467,0.349,0.3526,0.3604,0.3649,0.3731,0.3778,0.3849,0.3883,0.3912,0.3923,0.3901,0.398,0.3947,0.3903,0.3898,0.3776,0.3756,0.3733,0.3997,0.3997,0.3997,0.3997,0,0.3316,0.3326,0.3374,0.3381,0.3416,0.3465,0.3517,0.3574,0.3663,0.3725,0.3799,0.3855,0.3914,0.3962,0.3955,0.397,0.4017,0.3927,0.3917,0.3792,0.3775,0.3686,0.364,0.3998,0.3998,0.3997,0.3997,0,0.3266,0.3296,0.3317,0.3375,0.3394,0.3415,0.3501,0.3543,0.3644,0.3726,0.3753,0.3876,0.3942,0.3989,0.403,0.401,0.3903,0.4003,0.3838,0.3809,0.3659,0.3622,0.3468,0.3368,0.395,0.3949,0.3949,0,0.3241,0.3245,0.3296,0.3306,0.3327,0.3374,0.3408,0.3514,0.3563,0.3729,0.3758,0.3867,0.3919,0.3987,0.3968,0.3963,0.3864,0.3829,0.3766,0.365,0.3602,0.3468,0.3385,0.362,0.3617,0.3614,0.3612,0,0.3197,0.3213,0.3233,0.3251,0.3275,0.3314,0.3368,0.3408,0.3537,0.3611,0.3699,0.375,0.3847,0.3796,0.3827,0.3801,0.3644,0.3773,0.3702,0.339,0.3193,0.3091,0.3586,0.3588,0.359,0.3592,0.3593,0.3594,0.316,0.3158,0.3176,0.3182,0.3208,0.3221,0.3212,0.3286,0.3342,0.3404,0.3546,0.3557,0.3634,0.3652,0.3617,0.3482,0.3466,0.3373,0.3351,0.3237,0.3094,0.353,0.3494,0.3496,0.3498,0.3499,0.35,0,0.309,0.309,0.3102,0.3092,0.3066,0.3119,0.3151,0.3115,0.3112,0.321,0.3252,0.3271,0.325,0.3282,0.322,0.3088,0.2947,0.2999,0.278,0.2733,0.3168,0.311,0.2929,0.2929,0.2929,0.2929,0.2929,0.2929,0.3055,0.3022,0.3016,0.2939,0.2929,0.2852,0.2837,0.2811,0.2835,0.2792,0.2769,0.2833,0.2962,0.2989,0.2849,0.2773,0.2574,0.2448,0.2454,0.2777,0.2809,0.284,0.2776,0.2528,0.2528,0.1904,0.19,0.1896]},{"header":{"parameterUnit":"m.s-1","parameterCategory":2,"la1":30.2991,"la2":30.254,"lo1":-89.0895,"lo2":-89.0444,"dy":0.0017,"dx":0.0017,"nx":28,"ny":28,"refTime":"2025-11-22T03:00:00:Z","depth":"0","parameterNumber":3,"parameterNumberName":"V-component_of_CURRENTS"},"data":[0,0,0,0,0,0,0,0,0,0,0,0,0,0,0,0,0,0,0,0,0,0,0,0,0,0,0,0,0,0,0,0,0,0,0,0,0,0,0,0,0,0,0,0,0,0,0,0,0,0,0,0,0,0,0,0,0,0,0.0198,0.0198,0,0.0165,0.0165,0.0165,0.014,0.014,0.014,0.014,0.0091,0.009,0.0089,0,0,0,0,0,0,0,0,0,0,0,0,0,0.019,0.019,0.0198,0.0197,0.0197,0.0166,0.0165,0.0164,0.014,0.014,0.014,0.0139,0.0091,0.009,0.0088,0,0,0,0,0,0,0,0,0,0,0,0,0,0.0178,0.019,0.0198,0.0182,0.018,0.0166,0.0165,0.0164,0.014,0.014,0.014,0.0139,0.0092,0.009,0.0088,0.008,0,0,0.0083,0.0082,0,0,0,0,0,0,0,0,0.0179,0.0178,0.0185,0.0183,0.0181,0.0158,0.0144,0.0136,0.014,0.0154,0.014,0.0139,0.0113,0.0109,0.0102,0.0078,0.0076,0.0083,0.0082,0.0081,0.008,0,0,0,0,0,0,0,0.0179,0.0179,0.0184,0.0184,0.0182,0.016,0.0159,0.0142,0.0133,0.0153,0.0151,0.015,0.0111,0.0104,0.01,0.0075,0.0083,0.0081,0.008,0.0079,0.0047,0.0047,0,0,0,0,0,0,0.0189,0.018,0.0185,0.0183,0.0181,0.0161,0.0159,0.0164,0.0134,0.0129,0.015,0.0149,0.0107,0.0103,0.0099,0.0106,0.0081,0.0079,0.0078,0.0046,0.0047,0.0047,0,0,0,0,0,0,0.0189,0.019,0.0186,0.0181,0.0179,0.0162,0.0168,0.0164,0.016,0.0132,0.0127,0.0151,0.0106,0.0101,0.0092,0.0103,0.0078,0.0077,0.0046,0.0046,0.0047,0.0108,0,0,0,0,0,0,0.0189,0.019,0.0195,0.0182,0.018,0.0188,0.0168,0.0163,0.016,0.0158,0.0131,0.0126,0.0106,0.0095,0.009,0.01,0.0075,0.0046,0.0046,0.0047,0.0106,0.011,0.0114,0,0,0,0,0,0.0189,0.0202,0.0195,0.0196,0.0188,0.0189,0.0186,0.0171,0.016,0.0165,0.0145,0.0127,0.0093,0.0094,0.0088,0.0098,0.0046,0.0046,0.0047,0.0104,0.0109,0.0114,0,0,0,0,0,0,0.02,0.0201,0.0193,0.0205,0.02,0.0185,0.0186,0.0176,0.0163,0.0159,0.0132,0.0126,0.0119,0.0099,0.01,0.0088,0.0066,0.0065,0.0111,0.0116,0.012,0.0144,0.0074,0,0,0,0,0,0.0205,0.0215,0.0209,0.0218,0.0218,0.0202,0.0199,0.019,0.0178,0.0172,0.0154,0.0132,0.0116,0.011,0.009,0.0087,0.007,0.0088,0.0092,0.0096,0.0111,0.0095,0.01,0.0048,0.0048,0.0048,0,0,0.021,0.0212,0.0217,0.022,0.0214,0.0228,0.02,0.0201,0.0212,0.0169,0.0174,0.0145,0.0117,0.0113,0.0108,0.01,0.01,0.0097,0.0101,0.0114,0.0097,0.0102,0.0106,0.0049,0.0049,0.0049,0,0,0.0235,0.023,0.025,0.0252,0.025,0.0243,0.0248,0.0237,0.0231,0.0229,0.02,0.0184,0.0159,0.0145,0.0133,0.015,0.0121,0.0138,0.0184,0.0169,0.0174,0.0177,0.0157,0.0158,0.0144,0.0144,0.0144,0,0.0241,0.0268,0.0254,0.0276,0.0285,0.0257,0.0284,0.0274,0.0261,0.0265,0.0239,0.021,0.0177,0.0183,0.0183,0.0162,0.0146,0.0169,0.0177,0.018,0.0183,0.0161,0.0162,0.0147,0.0147,0.0146,0.0146,0,0.0286,0.0304,0.0316,0.0337,0.0343,0.0359,0.0351,0.035,0.0334,0.0329,0.0324,0.0278,0.0264,0.0245,0.0217,0.0225,0.0204,0.0182,0.0168,0.0192,0.0167,0.0167,0.0151,0.015,0.0149,0.0148,0,0,0.0312,0.0343,0.0348,0.0373,0.038,0.0395,0.0407,0.0423,0.0448,0.0412,0.0439,0.039,0.0363,0.0347,0.0307,0.029,0.0281,0.0249,0.0247,0.0238,0.0247,0.0232,0.023,0.0262,0.0263,0.0263,0.0219,0,0.0353,0.0412,0.0412,0.0466,0.0498,0.0482,0.0505,0.051,0.0505,0.0521,0.047,0.0472,0.0404,0.0395,0.0367,0.0311,0.0285,0.0295,0.0217,0.0215,0.0207,0.0231,0.0266,0.0231,0.0219,0.0218,0.0218,0,0.0401,0.0437,0.0498,0.0547,0.056,0.0583,0.0623,0.0643,0.0649,0.0644,0.0629,0.0587,0.0555,0.0488,0.0406,0.0417,0.0337,0.0283,0.028,0.025,0.0201,0.0204,0.0231,0.011,0.0218,0.0218,0.0218,0,0.0441,0.0498,0.0552,0.0568,0.0614,0.0636,0.0661,0.0682,0.0723,0.0725,0.0753,0.0694,0.068,0.0578,0.045,0.043,0.0361,0.0316,0.0226,0.0224,0.0231,0.0229,0.0143,0.0254,0.0254,0.0254,0.0254,0,0.0491,0.0535,0.0577,0.0609,0.0684,0.0693,0.0773,0.0784,0.0825,0.0904,0.0824,0.0865,0.0702,0.0636,0.0499,0.0375,0.0393,0.0247,0.0219,0.0251,0.0251,0.0128,0.0047,0.0252,0.0253,0.0253,0.0253,0,0.0529,0.0552,0.0624,0.0682,0.0706,0.0763,0.0852,0.0914,0.0939,0.1036,0.104,0.1,0.0922,0.0752,0.0595,0.0455,0.025,0.0263,0.0309,0.0287,0.0086,0.0008,-0.0118,-0.018,0.0163,0.0163,0.0162,0,0.0556,0.0596,0.0681,0.0734,0.0763,0.0848,0.0914,0.0964,0.1044,0.1135,0.1192,0.1139,0.1138,0.0897,0.0639,0.0402,0.0253,0.0253,0.0213,0.0093,-0.0016,-0.008,-0.0127,0.024,0.0241,0.0241,0.0241,0,0.0611,0.0636,0.0695,0.0804,0.0881,0.0984,0.1083,0.1163,0.1248,0.1343,0.1451,0.1457,0.1239,0.103,0.0685,0.0503,0.0175,0.0249,0.0119,0.004,-0.0029,-0.0106,0.024,0.0243,0.0243,0.0242,0.0242,0.0242,0.0648,0.0701,0.0777,0.0883,0.0978,0.1107,0.1207,0.1332,0.1485,0.165,0.1645,0.1711,0.1389,0.0941,0.0661,0.02,0.0181,0.0072,-0.0012,-0.0066,-0.0124,0.0224,0.0195,0.0195,0.0194,0.0194,0.0194,0,0.0696,0.0757,0.0855,0.0981,0.1094,0.1138,0.1312,0.1432,0.1632,0.1795,0.1905,0.1812,0.1408,0.0957,0.0338,0.0011,-0.0124,-0.0164,-0.0242,-0.028,0.0037,0.0043,-0.0012,-0.0012,-0.0012,-0.0012,-0.0012,-0.0012,0.0722,0.0812,0.0864,0.105,0.1147,0.1309,0.1416,0.1606,0.176,0.1981,0.2057,0.2079,0.1758,0.0662,-0.0063,-0.0237,-0.0471,-0.0511,-0.0641,-0.0419,-0.0403,-0.0388,-0.04,-0.0547,-0.0548,-0.0898,-0.0901,-0.0904]}],[{"header":{"parameterUnit":"m.s-1","parameterCategory":2,"la1":30.2991,"la2":30.254,"lo1":-89.0895,"lo2":-89.0444,"dy":0.0017,"dx":0.0017,"nx":28,"ny":28,"refTime":"2025-11-22T03:00:00:Z","depth":"2","parameterNumber":2,"parameterNumberName":"U-component_of_CURRENTS"},"data":[0,0,0,0,0,0,0,0,0,0,0,0,0,0,0,0,0,0,0,0,0,0,0,0,0,0,0,0,0,0,0,0,0,0,0,0,0,0,0,0,0,0,0,0,0,0,0,0,0,0,0,0,0,0,0,0,0,0,0.2523,0.2523,0,0.2531,0.2531,0.253,0.252,0.252,0.2519,0.2519,0.2508,0.2508,0.2508,0,0,0,0,0,0,0,0,0,0,0,0,0,0.2513,0.2513,0.2523,0.2523,0.2524,0.2531,0.2531,0.253,0.252,0.252,0.2519,0.2519,0.2508,0.2508,0.2508,0,0,0,0,0,0,0,0,0,0,0,0,0,0.2517,0.2513,0.2523,0.2521,0.2521,0.2531,0.2531,0.253,0.252,0.252,0.2519,0.2519,0.2508,0.2508,0.2508,0.2513,0,0,0.2507,0.2507,0,0,0,0,0,0,0,0,0.2517,0.2517,0.2521,0.2521,0.2521,0.2526,0.2523,0.2524,0.252,0.2518,0.2519,0.2519,0.2514,0.2513,0.2513,0.2512,0.2512,0.2507,0.2507,0.2507,0.2507,0,0,0,0,0,0,0,0.2517,0.2517,0.2524,0.2521,0.2521,0.2524,0.2524,0.2523,0.2516,0.2518,0.2518,0.2522,0.2513,0.2513,0.2512,0.2512,0.2507,0.2507,0.2507,0.2507,0.2563,0.2565,0,0,0,0,0,0,0.2519,0.2517,0.2524,0.2525,0.252,0.2525,0.2524,0.2523,0.2516,0.2516,0.2522,0.2522,0.2513,0.2513,0.2512,0.2555,0.2507,0.2507,0.2507,0.2562,0.2563,0.2565,0,0,0,0,0,0,0.2519,0.252,0.2524,0.2523,0.2524,0.2525,0.2524,0.2523,0.2534,0.252,0.2518,0.2535,0.2513,0.2512,0.2527,0.2553,0.2507,0.2507,0.256,0.2562,0.2564,0.2618,0,0,0,0,0,0,0.2518,0.2519,0.2525,0.2523,0.2524,0.2538,0.2524,0.2524,0.2537,0.2537,0.253,0.2528,0.2513,0.2528,0.2527,0.2552,0.2507,0.2558,0.2561,0.2564,0.2614,0.2622,0.2628,0,0,0,0,0,0.2518,0.2523,0.2525,0.2527,0.253,0.2538,0.2539,0.2538,0.2539,0.2546,0.2547,0.2529,0.2546,0.2529,0.2528,0.2553,0.2556,0.256,0.2563,0.2611,0.262,0.2628,0,0,0,0,0,0,0.252,0.2523,0.2525,0.2531,0.254,0.2538,0.2547,0.2549,0.2557,0.256,0.2544,0.2543,0.2569,0.2557,0.2538,0.2581,0.255,0.2554,0.2587,0.2596,0.2603,0.2611,0.2507,0,0,0,0,0,0.2525,0.2531,0.2535,0.2543,0.2549,0.2553,0.256,0.2562,0.2566,0.2569,0.2566,0.257,0.2582,0.2584,0.2589,0.2608,0.2612,0.2627,0.2634,0.264,0.2648,0.269,0.2701,0.2577,0.2577,0.2577,0,0,0.2528,0.2532,0.2535,0.2545,0.2551,0.2565,0.2556,0.2572,0.2587,0.2567,0.2588,0.2595,0.2594,0.2618,0.2629,0.2611,0.2677,0.2644,0.2649,0.2654,0.2695,0.2707,0.2718,0.2579,0.2579,0.2578,0,0,0.2535,0.2542,0.2549,0.2561,0.2578,0.2584,0.2594,0.2603,0.2611,0.2634,0.2631,0.2656,0.2663,0.2672,0.2677,0.2728,0.2716,0.2731,0.2769,0.281,0.2821,0.283,0.2845,0.2855,0.2731,0.2732,0.2732,0,0.2541,0.2546,0.2555,0.2569,0.258,0.2595,0.2609,0.2625,0.2639,0.2658,0.2649,0.2696,0.2691,0.2734,0.275,0.2744,0.2758,0.2733,0.2819,0.2829,0.2837,0.2851,0.2861,0.2735,0.2734,0.2734,0.2734,0,0.255,0.2562,0.257,0.2592,0.2608,0.2624,0.2646,0.2672,0.2689,0.2708,0.2758,0.2762,0.2793,0.2798,0.2786,0.2849,0.2836,0.2826,0.2796,0.2853,0.2863,0.2873,0.2739,0.2738,0.2737,0.2736,0,0,0.2537,0.2569,0.2572,0.2584,0.262,0.2631,0.2674,0.2713,0.2751,0.278,0.2826,0.2858,0.2876,0.2884,0.2883,0.2912,0.2977,0.2897,0.2897,0.2908,0.3058,0.2999,0.3003,0.2987,0.2989,0.2991,0.3038,0,0.254,0.2561,0.2581,0.2609,0.262,0.2658,0.2696,0.2742,0.2782,0.2835,0.287,0.2913,0.2905,0.2924,0.2961,0.2977,0.3008,0.2964,0.3004,0.3005,0.2943,0.3015,0.2764,0.2781,0.3048,0.3049,0.3051,0,0.2533,0.2549,0.257,0.2614,0.2625,0.2652,0.272,0.2758,0.2844,0.2883,0.295,0.2976,0.3038,0.3013,0.309,0.3065,0.3071,0.3075,0.3077,0.3011,0.2965,0.2769,0.2789,0.3067,0.3066,0.3064,0.3063,0,0.2497,0.2538,0.2551,0.2565,0.2624,0.2651,0.2691,0.2774,0.2819,0.2918,0.2967,0.3046,0.3091,0.3127,0.315,0.3127,0.322,0.3186,0.3137,0.3132,0.292,0.2892,0.324,0.324,0.324,0.324,0.324,0,0.2476,0.2488,0.2538,0.2545,0.2582,0.2631,0.2689,0.2751,0.2845,0.2907,0.2989,0.3052,0.3126,0.3183,0.3185,0.3204,0.3257,0.3161,0.3153,0.293,0.2905,0.315,0.3139,0.3242,0.3241,0.3241,0.3241,0,0.2428,0.2459,0.2479,0.254,0.2561,0.2588,0.2677,0.2719,0.2825,0.2907,0.2941,0.3078,0.3161,0.3213,0.3276,0.3247,0.3261,0.3248,0.2974,0.2933,0.3129,0.3121,0.3195,0.3194,0.3192,0.3191,0.319,0,0.2402,0.2407,0.2462,0.2474,0.25,0.2551,0.2586,0.2695,0.2743,0.2913,0.2943,0.3072,0.3131,0.3217,0.3193,0.3193,0.3259,0.2955,0.2867,0.3147,0.3131,0.3124,0.3117,0.2598,0.2593,0.2588,0.2584,0,0.2356,0.2378,0.2395,0.2419,0.2448,0.2481,0.254,0.2575,0.2704,0.2779,0.2878,0.2941,0.3044,0.2949,0.2979,0.294,0.2935,0.2862,0.324,0.2657,0.2591,0.2573,0.2585,0.2543,0.2547,0.255,0.2553,0.2554,0.2321,0.2317,0.2337,0.2349,0.2378,0.2386,0.2376,0.2447,0.2502,0.2576,0.2719,0.2726,0.2774,0.2689,0.2608,0.254,0.2739,0.2602,0.2613,0.263,0.2561,0.2497,0.2418,0.2421,0.2424,0.2426,0.2428,0,0.2255,0.2254,0.2262,0.2257,0.2236,0.2294,0.2317,0.228,0.2283,0.2389,0.2443,0.2267,0.2221,0.2259,0.209,0.2088,0.2034,0.2002,0.1907,0.1951,0.1989,0.1884,0.1563,0.156,0.1557,0.1554,0,0,0.222,0.2186,0.2177,0.2107,0.2108,0.204,0.2025,0.1998,0.2023,0.1998,0.1983,0.2153,0.2212,0.1871,0.1827,0.1664,0.179,0.1594,0.2295,0.2229,0.2264,0.235,0.2241,0,0,0,0,0]},{"header":{"parameterUnit":"m.s-1","parameterCategory":2,"la1":30.2991,"la2":30.254,"lo1":-89.0895,"lo2":-89.0444,"dy":0.0017,"dx":0.0017,"nx":28,"ny":28,"refTime":"2025-11-22T03:00:00:Z","depth":"2","parameterNumber":3,"parameterNumberName":"V-component_of_CURRENTS"},"data":[0,0,0,0,0,0,0,0,0,0,0,0,0,0,0,0,0,0,0,0,0,0,0,0,0,0,0,0,0,0,0,0,0,0,0,0,0,0,0,0,0,0,0,0,0,0,0,0,0,0,0,0,0,0,0,0,0,0,0.0239,0.0239,0,0.021,0.0209,0.0209,0.0188,0.0187,0.0187,0.0187,0.015,0.0149,0.0148,0,0,0,0,0,0,0,0,0,0,0,0,0,0.0229,0.0229,0.0239,0.0239,0.0238,0.021,0.0209,0.0209,0.0188,0.0187,0.0187,0.0187,0.015,0.0149,0.0148,0,0,0,0,0,0,0,0,0,0,0,0,0,0.0219,0.0229,0.0239,0.0225,0.0223,0.021,0.0209,0.0209,0.0188,0.0187,0.0187,0.0187,0.0151,0.0149,0.0148,0.0143,0,0,0.0144,0.0144,0,0,0,0,0,0,0,0,0.022,0.0219,0.0227,0.0226,0.0224,0.0203,0.0192,0.0187,0.0188,0.02,0.0187,0.0187,0.0168,0.0165,0.0159,0.0142,0.014,0.0144,0.0143,0.0143,0.0142,0,0,0,0,0,0,0,0.022,0.022,0.0227,0.0227,0.0225,0.0204,0.0202,0.019,0.0185,0.0199,0.0198,0.0196,0.0167,0.016,0.0158,0.0139,0.0144,0.0143,0.0142,0.0142,0.0118,0.0118,0,0,0,0,0,0,0.0228,0.0221,0.0227,0.0226,0.0222,0.0204,0.0203,0.0209,0.0185,0.0181,0.0196,0.0195,0.0162,0.0159,0.0156,0.0163,0.0143,0.0141,0.0141,0.0118,0.0118,0.0118,0,0,0,0,0,0,0.0228,0.023,0.0229,0.0223,0.0221,0.0205,0.0212,0.0209,0.0205,0.0183,0.0179,0.0197,0.0162,0.0158,0.0152,0.0161,0.0141,0.014,0.0118,0.0118,0.0118,0.0168,0,0,0,0,0,0,0.0228,0.023,0.0235,0.0224,0.0222,0.023,0.0212,0.0208,0.0205,0.0203,0.0182,0.0178,0.0162,0.0155,0.0151,0.0159,0.0139,0.0118,0.0118,0.0118,0.0166,0.017,0.0173,0,0,0,0,0,0.0228,0.0242,0.0236,0.0237,0.0231,0.023,0.0228,0.0214,0.0205,0.0209,0.0194,0.0179,0.0154,0.0154,0.015,0.0157,0.0117,0.0118,0.0118,0.0165,0.0169,0.0173,0,0,0,0,0,0,0.0239,0.0241,0.0234,0.0247,0.0242,0.0227,0.0228,0.0219,0.0209,0.0206,0.0183,0.0179,0.0175,0.0159,0.0159,0.015,0.0132,0.0132,0.0169,0.0173,0.0176,0.0194,0.0137,0,0,0,0,0,0.0245,0.0256,0.025,0.0259,0.0258,0.0243,0.024,0.0232,0.0222,0.0217,0.0202,0.0185,0.0172,0.0168,0.0153,0.0152,0.0131,0.0152,0.0156,0.0159,0.017,0.0144,0.0146,0.012,0.012,0.012,0,0,0.025,0.0252,0.0258,0.0261,0.0254,0.0266,0.0241,0.0241,0.025,0.0215,0.022,0.0196,0.0174,0.0171,0.0168,0.0161,0.0154,0.0159,0.0162,0.0172,0.0144,0.0147,0.0149,0.012,0.012,0.012,0,0,0.0271,0.027,0.0288,0.0289,0.0286,0.028,0.0284,0.0273,0.0267,0.0267,0.0242,0.0228,0.021,0.0198,0.0189,0.0203,0.0171,0.0193,0.023,0.0204,0.0207,0.0208,0.0181,0.018,0.0198,0.0198,0.0198,0,0.0277,0.0302,0.0291,0.0309,0.0317,0.0292,0.0315,0.0306,0.0294,0.0296,0.0275,0.0249,0.0225,0.0227,0.0229,0.0212,0.0191,0.0217,0.021,0.0211,0.0212,0.0183,0.0181,0.02,0.02,0.02,0.0199,0,0.0316,0.0333,0.0344,0.0363,0.0368,0.0382,0.0373,0.0372,0.0358,0.035,0.0343,0.0306,0.0293,0.0277,0.0257,0.0255,0.0235,0.0216,0.0202,0.0218,0.0186,0.0183,0.0204,0.0203,0.0202,0.0202,0,0,0.0338,0.0367,0.0371,0.0394,0.04,0.0413,0.0423,0.0433,0.0452,0.0419,0.0435,0.0397,0.0373,0.036,0.0326,0.0301,0.028,0.0266,0.0263,0.0244,0.0221,0.0202,0.0196,0.0259,0.0258,0.0258,0.0195,0,0.0373,0.0425,0.0427,0.0475,0.0503,0.0489,0.0508,0.0509,0.0501,0.0508,0.0459,0.0459,0.0406,0.04,0.0366,0.0306,0.0275,0.0299,0.0204,0.0201,0.0187,0.0193,0.0207,0.0152,0.0192,0.0192,0.0191,0,0.0413,0.0447,0.0502,0.0546,0.0557,0.0577,0.0609,0.0625,0.0619,0.0612,0.0592,0.0553,0.0515,0.0462,0.0369,0.0386,0.031,0.0254,0.025,0.0216,0.0177,0.0143,0.0145,0.0186,0.0187,0.0187,0.0187,0,0.0447,0.0499,0.0549,0.0564,0.0605,0.0624,0.0645,0.0657,0.069,0.0681,0.0692,0.0635,0.0615,0.0513,0.0391,0.038,0.0281,0.025,0.016,0.0157,0.0143,0.014,0.018,0.018,0.018,0.018,0.018,0,0.0491,0.053,0.057,0.06,0.0667,0.0675,0.0742,0.0748,0.0775,0.0831,0.0752,0.0769,0.0626,0.0548,0.0421,0.0288,0.0302,0.0171,0.0142,0.016,0.0159,0.0169,0.0169,0.0178,0.0178,0.0179,0.0179,0,0.0523,0.0545,0.061,0.0664,0.0685,0.0736,0.0812,0.0864,0.087,0.0935,0.0935,0.0877,0.078,0.0621,0.0465,0.0342,0.0204,0.0149,0.0178,0.0154,0.0087,0.009,0.0044,0.0043,0.0042,0.0042,0.0041,0,0.0545,0.058,0.066,0.0707,0.0735,0.081,0.0869,0.091,0.0974,0.101,0.1047,0.0968,0.0933,0.0684,0.0459,0.0235,0.0202,0.009,0.0069,0.0098,0.0074,0.0079,0.0083,0.0064,0.0064,0.0064,0.0063,0,0.0591,0.0614,0.067,0.0767,0.0837,0.093,0.1015,0.108,0.114,0.1186,0.1232,0.1202,0.0973,0.0756,0.0442,0.0284,0.0126,0.0076,0.0102,0.01,0.0112,0.0091,0.0095,0.006,0.0061,0.0061,0.0061,0.0061,0.0622,0.0668,0.0738,0.0834,0.092,0.1033,0.1116,0.1211,0.1317,0.1396,0.137,0.1324,0.1074,0.0675,0.0401,0.0105,0.0123,0.0009,0.0012,0.0015,0.0032,0.0042,-0.002,-0.002,-0.0021,-0.0021,-0.0021,0,0.0663,0.0716,0.0802,0.0915,0.1014,0.1058,0.1204,0.1288,0.1416,0.1482,0.1516,0.1266,0.1011,0.0709,0.028,0.0028,0.0005,-0.0066,-0.0033,-0.0028,-0.0024,-0.0008,-0.0072,-0.0072,-0.0073,-0.0074,0,0,0.0684,0.0764,0.0808,0.0968,0.1054,0.1192,0.1279,0.14,0.1476,0.154,0.1518,0.1467,0.1101,0.0782,0.0436,0.0184,0.0133,0.0125,0.0193,0.0278,0.0285,0.0045,0.0079,0,0,0,0,0]}],[{"header":{"parameterUnit":"m.s-1","parameterCategory":2,"la1":30.2991,"la2":30.254,"lo1":-89.0895,"lo2":-89.0444,"dy":0.0017,"dx":0.0017,"nx":28,"ny":28,"refTime":"2025-11-22T03:00:00:Z","depth":"4","parameterNumber":2,"parameterNumberName":"U-component_of_CURRENTS"},"data":[0,0,0,0,0,0,0,0,0,0,0,0,0,0,0,0,0,0,0,0,0,0,0,0,0,0,0,0,0,0,0,0,0,0,0,0,0,0,0,0,0,0,0,0,0,0,0,0,0,0,0,0,0,0,0,0,0,0,0.1588,0.1589,0,0.1633,0.1634,0.1634,0.1677,0.1677,0.1678,0.1679,0.1729,0.173,0.1731,0,0,0,0,0,0,0,0,0,0,0,0,0,0.154,0.154,0.1588,0.1589,0.1589,0.1633,0.1634,0.1634,0.1677,0.1677,0.1678,0.1679,0.1729,0.173,0.1731,0,0,0,0,0,0,0,0,0,0,0,0,0,0.1569,0.1541,0.1588,0.1617,0.162,0.1633,0.1634,0.1634,0.1676,0.1678,0.1679,0.1679,0.1729,0.173,0.1731,0.1717,0,0,0.1734,0.1735,0,0,0,0,0,0,0,0,0.1567,0.157,0.1612,0.1615,0.1619,0.1652,0.1636,0.1663,0.1676,0.1653,0.1679,0.168,0.1704,0.1708,0.1711,0.172,0.1722,0.1734,0.1735,0.1736,0.1736,0,0,0,0,0,0,0,0.1565,0.1569,0.1604,0.1613,0.1617,0.1629,0.1634,0.1641,0.1671,0.1655,0.1659,0.1666,0.1706,0.171,0.1713,0.1722,0.1734,0.1735,0.1736,0.1736,0.1826,0.1828,0,0,0,0,0,0,0.1562,0.1567,0.1603,0.1606,0.1597,0.1629,0.1635,0.1639,0.1671,0.1678,0.1666,0.1668,0.1708,0.1712,0.1715,0.1791,0.1736,0.1737,0.1737,0.1825,0.1827,0.1829,0,0,0,0,0,0,0.156,0.1564,0.1601,0.1589,0.1595,0.1629,0.1633,0.1639,0.1679,0.1679,0.1686,0.1704,0.1709,0.1713,0.1755,0.179,0.1737,0.1738,0.1822,0.1825,0.1828,0.1884,0,0,0,0,0,0,0.1559,0.1563,0.1584,0.1589,0.1595,0.1629,0.1633,0.1639,0.1681,0.1686,0.1713,0.1717,0.171,0.1754,0.1756,0.179,0.1739,0.182,0.1824,0.1827,0.188,0.1888,0.1896,0,0,0,0,0,0.1557,0.1571,0.1584,0.159,0.1616,0.163,0.1635,0.1661,0.1682,0.1701,0.1727,0.1718,0.1777,0.1756,0.1759,0.1793,0.1819,0.1823,0.1826,0.1877,0.1887,0.1895,0,0,0,0,0,0,0.1561,0.1577,0.1592,0.1612,0.1632,0.1639,0.1665,0.1682,0.1717,0.1735,0.1736,0.1741,0.1792,0.1786,0.1764,0.1831,0.1798,0.1802,0.1835,0.1845,0.1852,0.1856,0.174,0,0,0,0,0,0.1571,0.159,0.1603,0.1625,0.1638,0.166,0.1678,0.1696,0.1718,0.1737,0.1757,0.1781,0.1803,0.1821,0.1835,0.1868,0.1871,0.1895,0.1903,0.1909,0.1916,0.1955,0.1967,0.1841,0.1841,0.1841,0,0,0.158,0.1593,0.1606,0.1629,0.165,0.1671,0.1674,0.1711,0.1738,0.1735,0.1792,0.1811,0.1819,0.186,0.1882,0.1864,0.1946,0.1914,0.1919,0.1922,0.1961,0.1973,0.1984,0.1844,0.1844,0.1843,0,0,0.1594,0.1621,0.1638,0.1657,0.1693,0.1704,0.1723,0.1752,0.1781,0.1827,0.1837,0.188,0.1912,0.1925,0.1934,0.1994,0.1987,0.2006,0.2047,0.2086,0.2096,0.2106,0.2122,0.2132,0.2008,0.2008,0.2009,0,0.1611,0.1628,0.1648,0.1668,0.169,0.1724,0.1747,0.1776,0.182,0.185,0.1858,0.1933,0.1941,0.1988,0.2012,0.2011,0.2027,0.2008,0.2095,0.2105,0.2113,0.2127,0.2138,0.2012,0.2011,0.2011,0.2011,0,0.1623,0.1654,0.1668,0.1704,0.1731,0.1759,0.1793,0.1839,0.1882,0.1911,0.1985,0.2004,0.205,0.2061,0.2054,0.2123,0.2112,0.21,0.2069,0.2129,0.214,0.215,0.2016,0.2015,0.2014,0.2013,0,0,0.1612,0.1666,0.1676,0.17,0.1753,0.1771,0.1831,0.1884,0.1935,0.1992,0.2054,0.2102,0.2132,0.2144,0.2152,0.2183,0.2253,0.2175,0.2175,0.2185,0.2335,0.2181,0.2177,0.2264,0.2266,0.2268,0.2317,0,0.1619,0.1657,0.1686,0.1736,0.1757,0.1811,0.186,0.1921,0.198,0.205,0.2097,0.216,0.2158,0.2193,0.223,0.2251,0.2283,0.224,0.228,0.2281,0.2132,0.2184,0.2275,0.2324,0.2327,0.2328,0.2329,0,0.1611,0.1641,0.1685,0.1751,0.1768,0.1812,0.1901,0.1952,0.2053,0.2104,0.2184,0.2224,0.2296,0.2279,0.2358,0.2337,0.2347,0.2353,0.2354,0.2197,0.2145,0.2254,0.2347,0.2345,0.2344,0.2343,0.2342,0,0.157,0.1636,0.1674,0.1696,0.1777,0.1824,0.1881,0.1979,0.2033,0.2152,0.2208,0.2296,0.2355,0.2393,0.2421,0.2404,0.249,0.2461,0.233,0.2319,0.2417,0.2406,0.2514,0.2514,0.2514,0.2513,0.2513,0,0.154,0.1576,0.1667,0.1685,0.1748,0.1815,0.1897,0.197,0.2077,0.2142,0.2242,0.2297,0.2392,0.2448,0.2454,0.2422,0.2524,0.2343,0.2325,0.2439,0.243,0.2423,0.2412,0.2515,0.2515,0.2515,0.2514,0,0.1481,0.1541,0.1591,0.169,0.1728,0.1777,0.1898,0.1948,0.2069,0.2156,0.22,0.233,0.2398,0.2459,0.2521,0.2448,0.2438,0.2402,0.2524,0.2511,0.223,0.2222,0.2247,0.2242,0.2238,0.2234,0.2232,0,0.1448,0.147,0.1583,0.1617,0.1669,0.1754,0.1806,0.1933,0.1981,0.2151,0.2174,0.2298,0.2364,0.2327,0.2406,0.2402,0.2373,0.2344,0.2276,0.2225,0.2206,0.2204,0.2201,0.2225,0.2224,0.2223,0.2222,0,0.1385,0.1445,0.1487,0.1557,0.162,0.1673,0.1759,0.178,0.1919,0.205,0.2091,0.2122,0.2194,0.223,0.225,0.2243,0.2346,0.23,0.2307,0.2243,0.2198,0.2183,0.2185,0.2207,0.2209,0.2211,0.2211,0,0.1347,0.136,0.1426,0.1474,0.1546,0.1561,0.162,0.1667,0.173,0.1906,0.192,0.2048,0.2174,0.2149,0.2169,0.215,0.2105,0.2015,0.2036,0.2053,0.1966,0.1879,0.1779,0,0,0,0,0,0.1296,0.1294,0.1332,0.1367,0.1431,0.1473,0.1569,0.1629,0.1764,0.1739,0.182,0.1872,0.1903,0.1975,0.1914,0.2083,0.2117,0.2002,0.2024,0.2127,0.2143,0.2057,0,0,0,0,0,0,0.1257,0.1291,0.1293,0.1267,0.1273,0.1323,0.138,0.1473,0.1463,0.1611,0.164,0.175,0.1814,0.1918,0.1878,0.1897,0.1866,0.2085,0.2079,0.2117,0.2132,0.2146,0.2063,0,0,0,0,0]},{"header":{"parameterUnit":"m.s-1","parameterCategory":2,"la1":30.2991,"la2":30.254,"lo1":-89.0895,"lo2":-89.0444,"dy":0.0017,"dx":0.0017,"nx":28,"ny":28,"refTime":"2025-11-22T03:00:00:Z","depth":"4","parameterNumber":3,"parameterNumberName":"V-component_of_CURRENTS"},"data":[0,0,0,0,0,0,0,0,0,0,0,0,0,0,0,0,0,0,0,0,0,0,0,0,0,0,0,0,0,0,0,0,0,0,0,0,0,0,0,0,0,0,0,0,0,0,0,0,0,0,0,0,0,0,0,0,0,0,0.0199,0.0199,0,0.0183,0.0183,0.0182,0.0173,0.0173,0.0173,0.0173,0.0153,0.0153,0.0152,0,0,0,0,0,0,0,0,0,0,0,0,0,0.0187,0.0188,0.0199,0.0199,0.0199,0.0183,0.0183,0.0182,0.0173,0.0173,0.0173,0.0173,0.0154,0.0153,0.0152,0,0,0,0,0,0,0,0,0,0,0,0,0,0.0184,0.0188,0.0199,0.0192,0.0192,0.0183,0.0183,0.0182,0.0173,0.0173,0.0173,0.0173,0.0154,0.0153,0.0152,0.0148,0,0,0.015,0.015,0,0,0,0,0,0,0,0,0.0184,0.0184,0.0194,0.0193,0.0192,0.018,0.0171,0.0171,0.0173,0.018,0.0173,0.0173,0.0162,0.0161,0.0157,0.0147,0.0146,0.015,0.0149,0.0149,0.0149,0,0,0,0,0,0,0,0.0184,0.0185,0.0192,0.0193,0.0192,0.0178,0.0178,0.0171,0.0171,0.0179,0.0179,0.0177,0.0162,0.0158,0.0157,0.0145,0.015,0.0149,0.0149,0.0148,0.0137,0.0137,0,0,0,0,0,0,0.0189,0.0185,0.0193,0.0192,0.0188,0.0179,0.0178,0.0184,0.0171,0.0169,0.0177,0.0177,0.016,0.0158,0.0156,0.0166,0.0149,0.0148,0.0148,0.0137,0.0137,0.0137,0,0,0,0,0,0,0.0189,0.019,0.0194,0.0188,0.0187,0.0179,0.0185,0.0184,0.0185,0.017,0.0168,0.0181,0.016,0.0157,0.0157,0.0165,0.0148,0.0147,0.0137,0.0137,0.0137,0.0175,0,0,0,0,0,0,0.0189,0.019,0.0196,0.0188,0.0188,0.0196,0.0185,0.0183,0.0184,0.0183,0.0172,0.017,0.0159,0.0158,0.0156,0.0163,0.0147,0.0136,0.0137,0.0137,0.0174,0.0177,0.018,0,0,0,0,0,0.0188,0.02,0.0197,0.0198,0.0197,0.0197,0.0196,0.0189,0.0184,0.0189,0.0181,0.0171,0.0159,0.0158,0.0156,0.0162,0.0136,0.0137,0.0137,0.0173,0.0176,0.018,0,0,0,0,0,0,0.0197,0.02,0.0196,0.0208,0.0205,0.0196,0.0199,0.0193,0.019,0.019,0.0175,0.0173,0.0174,0.0163,0.0162,0.0159,0.0145,0.0145,0.0173,0.0176,0.0179,0.0191,0.0146,0,0,0,0,0,0.0202,0.0212,0.0208,0.0217,0.0217,0.0208,0.0208,0.0204,0.0199,0.0198,0.0189,0.0179,0.0172,0.0171,0.0161,0.0163,0.0143,0.0164,0.0167,0.0169,0.0177,0.015,0.0151,0.0139,0.0139,0.0139,0,0,0.0207,0.021,0.0215,0.0219,0.0216,0.0226,0.0208,0.0211,0.022,0.0196,0.0205,0.019,0.0174,0.0175,0.0174,0.0168,0.0161,0.017,0.0172,0.0178,0.015,0.0152,0.0153,0.0139,0.0139,0.0139,0,0,0.0223,0.0225,0.0239,0.0242,0.0242,0.0238,0.0242,0.0237,0.0235,0.0239,0.0223,0.0215,0.0206,0.0196,0.019,0.0203,0.0176,0.0198,0.0224,0.0198,0.0199,0.02,0.0172,0.017,0.02,0.02,0.0201,0,0.0229,0.0249,0.0242,0.0257,0.0265,0.0249,0.0267,0.0262,0.0258,0.0261,0.0248,0.0233,0.0217,0.0219,0.0221,0.021,0.019,0.0214,0.0202,0.0202,0.0202,0.0174,0.0171,0.0202,0.0202,0.0202,0.0202,0,0.0257,0.0273,0.0282,0.0298,0.0304,0.0316,0.0312,0.0315,0.0308,0.0304,0.0302,0.0276,0.0269,0.0257,0.0244,0.0239,0.0222,0.0208,0.0196,0.0206,0.0175,0.0171,0.0205,0.0204,0.0204,0.0203,0,0,0.0271,0.0297,0.0301,0.0321,0.033,0.0341,0.0352,0.0362,0.0377,0.0357,0.0369,0.0345,0.0328,0.0319,0.0295,0.027,0.0246,0.0243,0.0241,0.0219,0.0186,0.0167,0.0161,0.0229,0.0228,0.0228,0.0163,0,0.0296,0.0337,0.0342,0.0382,0.0404,0.0398,0.0416,0.042,0.0417,0.0423,0.0387,0.039,0.0353,0.0351,0.0319,0.0268,0.0238,0.0265,0.0176,0.0174,0.0158,0.0157,0.0227,0.016,0.016,0.0159,0.0158,0,0.0323,0.0351,0.0396,0.0435,0.0445,0.0465,0.0494,0.051,0.0507,0.0502,0.0488,0.0461,0.0428,0.0391,0.0306,0.0325,0.0261,0.0213,0.0209,0.0178,0.0148,0.0147,0.0151,0.0152,0.0152,0.0153,0.0153,0,0.0343,0.0388,0.0429,0.0443,0.0482,0.0502,0.0524,0.0537,0.0563,0.0557,0.0565,0.0518,0.0501,0.0416,0.0315,0.0311,0.0212,0.0193,0.0114,0.0111,0.0131,0.0131,0.0128,0.0128,0.0128,0.0128,0.0129,0,0.0369,0.0404,0.0446,0.047,0.0528,0.0541,0.0599,0.0607,0.063,0.0668,0.0614,0.0618,0.0507,0.0435,0.0332,0.0213,0.0223,0.0119,0.0094,0.0148,0.0151,0.0128,0.0129,0.0126,0.0126,0.0127,0.0127,0,0.0384,0.0409,0.0464,0.0517,0.054,0.0584,0.0655,0.0696,0.0706,0.0749,0.075,0.0696,0.0604,0.0479,0.0341,0.0247,0.0128,0.0081,0.015,0.013,0.0039,0.0043,-0.0011,-0.0012,-0.0013,-0.0014,-0.0015,0,0.0395,0.0424,0.0501,0.0543,0.0572,0.0641,0.0693,0.0733,0.0777,0.0796,0.0814,0.0743,0.0688,0.0481,0.0342,0.0141,0.0107,0.0039,0.0034,0.0044,0.0025,0.0031,0.0035,-0.0016,-0.0016,-0.0017,-0.0017,0,0.0416,0.0444,0.0491,0.0578,0.0642,0.072,0.0793,0.0828,0.0875,0.0884,0.0868,0.0762,0.0655,0.0489,0.0332,0.0186,0.008,0.0028,0.0029,0.0024,0.0037,0.002,0.0026,-0.002,-0.002,-0.002,-0.0019,0,0.0432,0.0467,0.053,0.0608,0.0692,0.0771,0.0811,0.0862,0.0904,0.0918,0.0913,0.0792,0.0732,0.0512,0.0368,0.0222,0.0178,0.0119,0.0114,0.0116,0.0166,0.0202,0.0176,0,0,0,0,0,0.0446,0.0486,0.0556,0.0641,0.0727,0.0779,0.0866,0.09,0.0942,0.0938,0.0928,0.0827,0.0618,0.0529,0.038,0.0334,0.0143,0.0151,0.007,-0.004,-0.0036,-0.0002,0,0,0,0,0,0,0.0454,0.0517,0.0552,0.0656,0.0719,0.0817,0.0875,0.0907,0.0904,0.092,0.0815,0.0773,0.0572,0.0704,0.0372,0.0329,0.0252,0.006,0.0056,-0.0042,-0.0038,-0.0035,0.0001,0,0,0,0,0]}]]